Location: Alpha Ridge Park
(39.3209°N, 76.9128°W)
Time: 09:18:52
(UTC-04:00)

AO-92 - Pass Details

Date: 04 July 2022
Orbit: 469 x 481 km, 97.4° (Epoch: 13 August)

Event Time Altitude Azimuth Distance (km) Brightness Sun altitude
Exits shadow 00:15:53 14° 279° (W) 1,440 ? -26.4°
Drops below altitude 10° 00:17:15 10° 301° (WNW) 1,659 ? -26.5°
Sets 00:20:08 0° 327° (NNW) 2,548 ? -26.6°
